Weather History for KADM - January, 2013

Change the Weather History Date:

Monday, January 7, 2013

  Actual Average Record
Temperature  
Mean Temperature 36 °F -  
Max Temperature 53 °F 50 °F 77 °F (2006)
Min Temperature 19 °F 32 °F 11 °F (2014)
Degree Days  
Heating Degree Days 29    
Moisture  
Dew Point 23 °F    
Average Humidity 90    
Maximum Humidity 100    
Minimum Humidity 41    
Precipitation  
Precipitation 0.00 in - - ()
Sea Level Pressure  
Sea Level Pressure 30.27 in    
Wind  
Wind Speed 1 mph (ESE)    
Max Wind Speed 10 mph    
Max Gust Speed -    
Visibility 10 miles    
Events      
Averages and records for this station are not official NWS values.
T = Trace of Precipitation, MM = Missing Value Source: NWS Daily Summary

Daily Weather History Graph

Daily Weather History Graph

Search for Another Location

Airport or City:

Trip Planner

Search our weather history database for the weather conditions in past years. The results will help you decide how hot, cold, wet, or windy it might be!

Date:

Astronomy

Jan. 07, 2013 Rise Set
Actual Time 7:34 AM CST 5:34 PM CST
Civil Twilight 7:07 AM CST 6:01 PM CST
Nautical Twilight 6:36 AM CST 6:33 PM CST
Astronomical Twilight 6:05 AM CST 7:03 PM CST
Moon 3:03 AM CST (1/7) 1:44 PM CST (1/7)
Length of Visible Light 10h 54m
Length of Day
9h 59m
Waning Crescent, 22% of the Moon is Illuminated
Jan 7
Waning Crescent
Jan 11
New
Jan 18
First Quarter
Jan 26
Full
Feb 3
Last Quarter

Hourly Weather History & Observations

Time (CST) Temp. Windchill Dew Point Humidity Pressure Visibility Wind Dir Wind Speed Gust Speed Precip Events Conditions
12:15 AM 24.8 °F - 23.0 °F 93% 30.35 in 10.0 mi Calm Calm - N/A   Unknown
12:35 AM 23.0 °F - 23.0 °F 100% 30.34 in 10.0 mi Calm Calm - N/A   Unknown
12:55 AM 23.0 °F - 23.0 °F 100% 30.34 in 10.0 mi Calm Calm - N/A   Unknown
1:15 AM 23.0 °F - 21.2 °F 93% 30.33 in 10.0 mi Calm Calm - N/A   Unknown
1:35 AM 23.0 °F - 21.2 °F 93% 30.32 in 10.0 mi Calm Calm - N/A   Unknown
1:55 AM 23.0 °F - 21.2 °F 93% 30.32 in 10.0 mi Calm Calm - N/A   Unknown
2:15 AM 23.0 °F - 21.2 °F 93% 30.31 in 10.0 mi Calm Calm - N/A   Unknown
2:35 AM 21.2 °F - 19.4 °F 93% 30.31 in 10.0 mi Calm Calm - N/A   Unknown
2:55 AM 21.2 °F - 21.2 °F 100% 30.31 in 10.0 mi Calm Calm - N/A   Unknown
3:15 AM 21.2 °F - 19.4 °F 93% 30.31 in 10.0 mi Calm Calm - N/A   Unknown
3:35 AM 21.2 °F - 19.4 °F 93% 30.32 in 10.0 mi Calm Calm - N/A   Unknown
3:55 AM 21.2 °F - 19.4 °F 93% 30.32 in 10.0 mi Calm Calm - N/A   Unknown
4:15 AM 21.2 °F 14.9 °F 19.4 °F 93% 30.31 in 10.0 mi NE 4.6 mph - N/A   Unknown
4:35 AM 19.4 °F - 19.4 °F 100% 30.31 in 10.0 mi Calm Calm - N/A   Unknown
4:55 AM 19.4 °F - 17.6 °F 93% 30.30 in 10.0 mi Calm Calm - N/A   Unknown
5:15 AM 19.4 °F - 19.4 °F 100% 30.30 in 10.0 mi Calm Calm - N/A   Unknown
5:35 AM 19.4 °F - 17.6 °F 93% 30.30 in 10.0 mi Calm Calm - N/A   Unknown
6:55 AM 19.4 °F - 17.6 °F 93% 30.31 in 10.0 mi Calm Calm - N/A   Clear
12:55 PM 53.6 °F - 30.2 °F 41% 30.23 in 10.0 mi SSE 10.4 mph - N/A   Clear
10:35 PM 37.4 °F 33.8 °F 32.0 °F 81% 30.11 in 10.0 mi ESE 4.6 mph - N/A   Unknown
10:55 PM 37.4 °F - 32.0 °F 81% 30.12 in 10.0 mi Calm Calm - N/A   Unknown
11:15 PM 35.6 °F 32.8 °F 30.2 °F 81% 30.12 in 10.0 mi SE 3.5 mph - N/A   Unknown
11:35 PM 35.6 °F 31.7 °F 32.0 °F 87% 30.11 in 10.0 mi ESE 4.6 mph - N/A   Unknown
11:55 PM 35.6 °F 30.7 °F 32.0 °F 87% 30.10 in 10.0 mi ESE 5.8 mph - N/A   Unknown